This is the latest recevied weather packets stored in our database for station/object IU2PLZ-12. If no packets are shown the sender has not sent any weather packets the latest 10 day(s).
| Time | Temp. | Humidity | Pressure | Rain* | Wind** | Luminosity | Snow |
|---|---|---|---|---|---|---|---|
| 1777594585 | 12.78° C | 39% | 1008 hPa | - | - | - | - |
| 1777593685 | 12.78° C | 39% | 1008 hPa | - | - | - | - |
| 1777592785 | 13.33° C | 39% | 1008 hPa | - | - | - | - |
| 1777591884 | 13.33° C | 39% | 1008 hPa | - | - | - | - |
| 1777590984 | 13.33° C | 40% | 1007.9 hPa | - | - | - | - |
| 1777590084 | 13.89° C | 40% | 1007.8 hPa | - | - | - | - |
| 1777589184 | 13.89° C | 40% | 1007.8 hPa | - | - | - | - |
| 1777588284 | 14.44° C | 40% | 1007.7 hPa | - | - | - | - |
| 1777587383 | 14.44° C | 40% | 1007.6 hPa | - | - | - | - |
| 1777586483 | 14.44° C | 40% | 1007.5 hPa | - | - | - | - |
| 1777585583 | 15° C | 40% | 1007.4 hPa | - | - | - | - |
| 1777584683 | 15.56° C | 39% | 1007.2 hPa | - | - | - | - |
| 1777583783 | 15° C | 40% | 1007.1 hPa | - | - | - | - |
| 1777582883 | 15.56° C | 40% | 1007.1 hPa | - | - | - | - |
| 1777581982 | 15.56° C | 41% | 1006.9 hPa | - | - | - | - |
| 1777581082 | 16.11° C | 40% | 1006.8 hPa | - | - | - | - |
| 1777580182 | 16.11° C | 39% | 1006.6 hPa | - | - | - | - |
| 1777579282 | 16.67° C | 37% | 1006.5 hPa | - | - | - | - |
| 1777578382 | 17.22° C | 36% | 1006.3 hPa | - | - | - | - |
| 1777577481 | 17.22° C | 36% | 1006.1 hPa | - | - | - | - |
| 1777576581 | 17.78° C | 34% | 1005.9 hPa | - | - | - | - |
| 1777575681 | 18.33° C | 34% | 1005.6 hPa | - | - | - | - |
| 1777574781 | 18.33° C | 35% | 1005.4 hPa | - | - | - | - |
| 1777573880 | 18.89° C | 33% | 1005.2 hPa | - | - | - | - |
| 1777572980 | 20.56° C | 30% | 1005 hPa | - | - | - | - |
* Rain since midnight (hover to see other rain measurements)
** Current wind speed in m/s (hover to see current wind gust speed)